Regional Weather Roundup
Issued by NWS

Home | Current Version | Previous Version | Graphics & Text | Print | Product List | Glossary On
Versions: 1 2 3 4 5 6 7 8 9 10 11 12 13 14 15 16 17 18 19 20 21 22 23 24 25 26 27 28 29 30 31 32 33 34 35 36 37 38 39 40 41 42 43 44 45 46 47 48 49
000
ASUS45 KBOU 271407
RWRCO

WEATHER ROUNDUP FOR COLORADO
NATIONAL WEATHER SERVICE DENVER/BOULDER CO
700 AM MST SAT DEC 27 2014

NOTE: "FAIR" INDICATES FEW OR NO CLOUDS BELOW 12000 FEET WITH NO
SIGNIFICANT WEATHER AND/OR OBSTRUCTIONS TO VISIBILITY.

COZ001>005-013-030-031-271500-
...NORTHWEST COLORADO...

CITY           SKY/WX    TMP DP  RH WIND       PRES   REMARKS
CRAIG          LGT SNOW   6   2  83 CALM      30.23R FOG
HAYDEN         CLOUDY     9   5  85 CALM      30.19R
MEEKER         CLOUDY     7   3  84 CALM      30.21R
MOUNT WERNER   NOT AVBL
STEAMBOAT SPGS CLOUDY     8   5  88 CALM      30.17R
WALDEN         MOCLDY   -15 -20  76 SE5       30.07R WCI -27
$$

COZ006>008-011-271500-
...WEST CENTRAL VALLEYS...

CITY           SKY/WX    TMP DP  RH WIND       PRES   REMARKS
GRAND JUNCTION CLEAR      4   0  83 CALM      30.29R
MONTROSE       CLOUDY    15  11  83 SE5       30.26R WCI   8
EAGLE          FLURRIES   7   5  92 CALM      30.22R
RIFLE          MOCLDY     8   3  80 SW3       30.27R
DELTA          CLOUDY    18  12  76 CALM      30.28R
NUCLA          PTCLDY     9   3  78 SE8       30.27R WCI  -4
$$

COZ017>023-064>068-271500-
...SOUTHWEST COLORADO...

CITY           SKY/WX    TMP DP  RH WIND       PRES   REMARKS
DURANGO        PTCLDY     3  -2  79 CALM      30.13R
CORTEZ         CLEAR      5   1  83 NE8       30.20R WCI  -8
PAGOSA SPRINGS PTCLDY     1  -1  89 CALM      30.09R THUNDER
TELLURIDE      PTCLDY     0  -3  85 E3        30.08R
WOLF CREEK PAS NOT AVBL
$$

COZ009-010-012-014-032>034-037-058>063-271500-
...CENTRAL COLORADO...

CITY           SKY/WX    TMP DP  RH WIND       PRES   REMARKS
ASPEN          CLOUDY     5  -3  69 S9        30.12R WCI  -9
BUENA VISTA    NOT AVBL
COPPER MTN     CLOUDY     0  -8  71 W14       29.90R WCI -19
BERTHOUD PASS  MOCLDY    -9 -15  77 MISG      29.85S
COTTONWOOD PAS PTCLDY     9   1  72 NW6       29.98R WCI  -1
GUNNISON       CLOUDY     0  -9  65 CALM      30.15R
KREMMLING      CLOUDY     9   3  78 CALM      30.15R
LEADVILLE      MOCLDY   -13 -18  78 NE9       29.99R WCI -31
MONARCH PASS   HAZE      -4  -8  84 MISG      29.99R VSB 1/2
SALIDA         PTCLDY     1  -4  82 W6        30.18R WCI -11
SUNLIGHT       MOCLDY   N/A N/A N/A CALM      30.00R
WILKERSON PASS MOCLDY     0  -6  78 W6        29.92R WCI -12
$$

COZ069>075-271500-
...SAN LUIS VALLEY/SANGRE DE CRISTO MOUNTAINS...

CITY           SKY/WX    TMP DP  RH WIND       PRES   REMARKS
ALAMOSA        MOCLDY    -8 -12  83 CALM      30.11R
LA VETA PASS   NOT AVBL
SAGUACHE       PTCLDY     3  -4  72 NW18      30.09R WCI -17
$$

COZ035-036-038>040-271500-
...NORTHERN COLORADO FRONT RANGE...

CITY           SKY/WX    TMP DP  RH WIND       PRES   REMARKS
DENVER INTL AP PTCLDY    10   4  76 SW14      30.13R WCI  -6
DMNS CITY PARK   N/A      9   2  73 S7        30.14S WCI  -2
AURORA         CLEAR      7   4  89 S10       30.13R WCI  -8
FRONT RANGE AP PTCLDY    14   5  67 SW12      30.13R WCI   0
ERIE MUNI ARPT   N/A     -6  -9  86 CALM      30.14S
BOULDER MUN AP PTCLDY    10   9  92 SW3       30.13R
CENTENNIAL     PTCLDY     4  -1  80 S6        30.12R WCI  -7
BROOMFIELD     CLEAR     12   3  67 SW3       30.12
FORT COLLINS   PTCLDY     3   1  92 S7        30.14S WCI  -9
LONGMONT       PTCLDY    -2  -6  82 CALM      30.17R
$$

COZ041-046-047-076>085-087-088-271500-
...PIKES PEAK/PALMER DIVIDE AND SOUTHERN FOOTHILLS...

CITY           SKY/WX    TMP DP  RH WIND       PRES   REMARKS
COLO. SPRINGS  PTCLDY     9   2  73 W6        30.12R WCI  -1
A. F. ACADEMY  PTCLDY     2  -4  77 N8        30.09R WCI -12
ELLICOTT       NOT AVBL
FALCON         PTCLDY    11   3  68 NW8       30.08R WCI   0
FORT CARSON    PTCLDY     9   4  80 S5        30.13R WCI   1
LIMON          PTCLDY     3  -1  83 NW3       30.14R
MONUMENT HILL  PTCLDY     0  -6  78 W8        30.06R WCI -15
TRINIDAD       CLOUDY    13  10  88 CALM      30.16R
$$

COZ042>045-048>051-090-091-271500-
...NORTHEAST COLORADO...

CITY           SKY/WX    TMP DP  RH WIND       PRES   REMARKS
GREELEY ARPT   PTCLDY    -6 -17  59 CALM      30.15R
AKRON          PTCLDY     4   2  91 W16       30.14R FOG     WCI -15
BURLINGTON     PTCLDY     3  -1  83 W10       30.20R WCI -12
WRAY           PTCLDY     6   3  87 W10       30.20R WCI  -8
STERLING       PTCLDY     0  -4  85 S5        30.18R WCI -10
HOLYOKE        PTCLDY     5   0  78 W8        30.18R WCI  -8
FORT MORGAN    PTCLDY    -1  -4  85 W13       30.17R WCI -19
$$

COZ086-089-092>099-271500-
...SOUTHEAST COLORADO...

CITY           SKY/WX    TMP DP  RH WIND       PRES   REMARKS
PUEBLO         PTCLDY     6   3  87 CALM      30.21R
LA JUNTA       CLEAR      7   2  80 W13       30.24R WCI  -9
LAMAR          CLEAR      6   2  83 W7        30.25R WCI  -6
SPRINGFIELD      N/A      6   3  87 NW9       30.20R WCI  -8
$$



USA.gov is the U.S. government's official web portal to all federal, state and local government web resources and services.